Plainview, TX
on Wednesday, October 4, 2017

Wednesday
Previous Day Next Day
Daily Summary
 ActualAverageRecord
Temperature
Mean Temperature - -  
Max Temperature 77 °F 81 °F 94 °F (1917)
Min Temperature 65 °F 52 °F 36 °F (1961)
Cooling Degree Days 6    
Growing Degree Days21 (Base - )  
Moisture
Dew Point 66 °F   
Average Humidity 92    
Maximum Humidity 99    
Minimum Humidity 69    
Precipitation
Precipitation 0.36 in - - ()
Wind
Wind Speed 7 mph   
Max Wind Speed 15 mph   
Max Gust Speed 20 mph   
Visibility 9 miles   
Events Rain , Thunderstorm   
Averages and records for this station are not official NWS values.
Key: T is trace of precipitation, MM is missing value
Source: NWS Daily Summary
Seasonal Weather Averages





Time(CDT)TemperatureDew PointHumidity Pressure Visibility Wind DirectionWind SpeedGust SpeedPrecipitationEvents Conditions
12:15 AM 67.3 °F 64.4 °F 90% 30.23 in 10.0 miles East 8.1 mph - N/A   Scattered Clouds
12:35 AM 67.3 °F 64.4 °F 90% 30.24 in 10.0 miles ESE 4.6 mph - N/A   Clear
12:55 AM 67.3 °F 64.0 °F 89% 30.23 in 10.0 miles SE 9.2 mph - N/A   Scattered Clouds
1:15 AM 67.3 °F 64.0 °F 89% 30.24 in 10.0 miles SE 9.2 mph - N/A   Scattered Clouds
1:35 AM 67.1 °F 64.0 °F 90% 30.24 in 10.0 miles SE 10.4 mph - N/A   Scattered Clouds
1:55 AM 66.7 °F 64.4 °F 92% 30.25 in 10.0 miles SE 9.2 mph - N/A   Scattered Clouds
2:15 AM 66.6 °F 64.4 °F 93% 30.25 in 10.0 miles SSE 9.2 mph - N/A   Scattered Clouds
2:35 AM 66.4 °F 64.6 °F 94% 30.25 in 10.0 miles SSE 10.4 mph - N/A   Mostly Cloudy
2:55 AM 66.2 °F 64.6 °F 94% 30.25 in 10.0 miles SSE 9.2 mph - N/A   Overcast
3:15 AM 65.5 °F 64.4 °F 96% 30.24 in 10.0 miles SSE 6.9 mph - N/A   Mostly Cloudy
3:35 AM 65.7 °F 64.4 °F 96% 30.24 in 10.0 miles South 6.9 mph - N/A   Mostly Cloudy
3:55 AM 66.2 °F 64.8 °F 95% 30.24 in 10.0 miles South 9.2 mph - N/A   Overcast
4:15 AM 66.2 °F 64.6 °F 94% 30.25 in 10.0 miles South 9.2 mph - N/A   Overcast
4:35 AM 66.4 °F 64.8 °F 95% 30.26 in 10.0 miles South 6.9 mph - N/A   Overcast
4:55 AM 66.2 °F 64.8 °F 95% 30.26 in 10.0 miles South 3.5 mph - N/A   Overcast
5:15 AM 65.8 °F 64.8 °F 96% 30.27 in 10.0 miles South 3.5 mph - N/A   Overcast
5:35 AM 65.7 °F 64.8 °F 97% 30.27 in 7.0 miles Calm Calm - N/A   Overcast
5:55 AM 65.8 °F 64.9 °F 97% 30.27 in 7.0 miles Calm Calm - N/A   Overcast
6:15 AM 65.8 °F 64.9 °F 97% 30.27 in 5.0 miles Calm Calm - N/A   Light Drizzle
6:35 AM 65.7 °F 65.1 °F 98% 30.27 in 5.0 miles Calm Calm - N/A Rain Rain
6:55 AM 65.8 °F 65.3 °F 98% 30.28 in 2.0 miles Calm Calm - 0.13 in Rain Heavy Rain
7:15 AM 65.8 °F 65.3 °F 98% 30.28 in 4.0 miles Calm Calm - 0.02 in Rain Light Rain
7:35 AM 66.2 °F 65.5 °F 98% 30.28 in 3.0 miles Calm Calm - 0.05 in Rain Rain
7:55 AM 66.2 °F 65.5 °F 98% 30.29 in 3.0 miles Calm Calm - 0.08 in Rain Light Rain
8:15 AM 66.4 °F 65.8 °F 98% 30.29 in 4.0 miles East 3.5 mph - N/A   Overcast
8:35 AM 66.9 °F 66.4 °F 98% 30.30 in 4.0 miles South 6.9 mph - 0.03 in   Overcast
8:55 AM 67.3 °F 66.4 °F 97% 30.30 in 10.0 miles South 5.8 mph - 0.03 in   Overcast
9:15 AM 68.0 °F 66.9 °F 96% 30.31 in 10.0 miles South 5.8 mph - N/A   Overcast
9:35 AM 68.4 °F 67.1 °F 96% 30.31 in 10.0 miles South 5.8 mph - N/A Thunderstorm Overcast
9:55 AM 69.3 °F 67.3 °F 93% 30.31 in 10.0 miles SSW 6.9 mph - N/A   Overcast
10:15 AM 68.7 °F 66.7 °F 93% 30.31 in 10.0 miles South 6.9 mph - N/A   Overcast
10:35 AM 68.5 °F 66.7 °F 94% 30.31 in 10.0 miles SSE 9.2 mph - N/A   Overcast
10:55 AM 68.5 °F 66.6 °F 93% 30.31 in 10.0 miles South 8.1 mph - N/A Thunderstorm Overcast
11:15 AM 69.3 °F 66.6 °F 91% 30.31 in 10.0 miles South 11.5 mph - N/A Thunderstorm Overcast
11:35 AM 69.6 °F 67.1 °F 92% 30.31 in 10.0 miles South 11.5 mph - N/A   Overcast
11:55 AM 71.1 °F 66.9 °F 87% 30.31 in 10.0 miles South 11.5 mph - N/A   Overcast
12:15 PM 71.2 °F 67.3 °F 87% 30.31 in 10.0 miles SSE 15.0 mph - N/A   Overcast
12:35 PM 71.6 °F 67.1 °F 86% 30.31 in 10.0 miles South 13.8 mph - N/A   Overcast
12:55 PM 71.4 °F 66.6 °F 85% 30.30 in 10.0 miles South 11.5 mph - N/A   Overcast
1:15 PM 73.2 °F 66.4 °F 79% 30.29 in 10.0 miles South 15.0 mph 19.6 mph N/A   Overcast
1:35 PM 73.4 °F 66.7 °F 80% 30.28 in 10.0 miles South 10.4 mph - N/A   Overcast
1:55 PM 74.5 °F 66.9 °F 77% 30.27 in 10.0 miles South 12.7 mph 18.4 mph N/A   Overcast
2:15 PM 74.8 °F 66.9 °F 76% 30.26 in 10.0 miles SSE 13.8 mph 18.4 mph N/A Thunderstorm Overcast
2:35 PM 73.6 °F 66.7 °F 79% 30.25 in 10.0 miles South 10.4 mph - N/A   Overcast
2:55 PM 73.6 °F 67.1 °F 80% 30.24 in 10.0 miles South 10.4 mph - N/A Rain Light Rain
3:15 PM 74.3 °F 67.1 °F 78% 30.24 in 10.0 miles South 12.7 mph 17.3 mph N/A Thunderstorm Overcast
3:35 PM 75.2 °F 66.6 °F 74% 30.23 in 10.0 miles South 12.7 mph 18.4 mph N/A   Overcast
3:55 PM 76.6 °F 66.7 °F 71% 30.22 in 10.0 miles SSW 12.7 mph 18.4 mph N/A   Overcast
4:15 PM 77.4 °F 66.6 °F 69% 30.22 in 10.0 miles SSW 11.5 mph 16.1 mph N/A   Overcast
4:35 PM 75.0 °F 67.1 °F 76% 30.22 in 10.0 miles South 8.1 mph - N/A Thunderstorm Thunderstorm
4:55 PM 73.6 °F 66.7 °F 79% 30.22 in 10.0 miles South 10.4 mph - N/A Rain , Thunderstorm Light Thunderstorms and Rain
5:15 PM 67.1 °F 66.4 °F 98% 30.22 in 4.0 miles SSW 9.2 mph - 0.10 in Rain , Thunderstorm Heavy Thunderstorms and Rain
5:35 PM 67.5 °F 67.3 °F 99% 30.22 in 10.0 miles WSW 5.8 mph - 0.12 in   Overcast
5:55 PM 68.9 °F 68.4 °F 98% 30.21 in 10.0 miles SSW 3.5 mph - 0.12 in Thunderstorm Unknown
6:15 PM 68.9 °F 68.4 °F 98% 30.21 in 10.0 miles Calm Calm - N/A Thunderstorm Overcast
6:35 PM 69.6 °F 69.1 °F 98% 30.21 in 10.0 miles SSE 4.6 mph - N/A   Overcast
6:55 PM 69.1 °F 68.5 °F 98% 30.21 in 10.0 miles SSE 6.9 mph - N/A   Overcast
7:15 PM 69.1 °F 68.5 °F 98% 30.22 in 10.0 miles SSE 4.6 mph - N/A   Overcast
7:35 PM 68.9 °F 68.4 °F 98% 30.21 in 10.0 miles ESE 3.5 mph - N/A   Mostly Cloudy
7:50 PM 68.9 °F 68.5 °F 99% 30.21 in 7.0 miles SE 5.8 mph - N/A   Mostly Cloudy
8:15 PM 68.7 °F 68.2 °F 98% 30.21 in 10.0 miles SE 4.6 mph - N/A   Overcast
8:35 PM 68.5 °F 68.2 °F 99% 30.21 in 10.0 miles SE 5.8 mph - N/A   Overcast
8:55 PM 68.4 °F 68.0 °F 99% 30.22 in 10.0 miles SE 6.9 mph - N/A   Overcast
9:15 PM 68.2 °F 67.6 °F 98% 30.22 in 10.0 miles SE 5.8 mph - N/A   Overcast
9:35 PM 68.0 °F 67.6 °F 99% 30.23 in 10.0 miles SE 5.8 mph - N/A   Overcast
9:55 PM 68.4 °F 67.3 °F 96% 30.23 in 10.0 miles SE 5.8 mph - N/A   Overcast
10:15 PM 69.1 °F 67.5 °F 95% 30.23 in 10.0 miles SE 6.9 mph - N/A   Overcast
10:35 PM 69.3 °F 67.3 °F 93% 30.24 in 10.0 miles SE 6.9 mph - N/A   Overcast
10:55 PM 69.1 °F 67.1 °F 93% 30.24 in 10.0 miles SE 6.9 mph - N/A   Overcast
11:15 PM 68.9 °F 67.1 °F 94% 30.24 in 10.0 miles SE 6.9 mph - N/A   Overcast
11:35 PM 68.5 °F 66.7 °F 94% 30.23 in 10.0 miles SSE 9.2 mph - N/A   Mostly Cloudy
11:55 PM 68.0 °F 66.4 °F 95% 30.23 in 10.0 miles SE 6.9 mph - N/A   Clear
 Powered By Weather Underground